Weather in Lizunovo

Russia / Vladimir Oblast     56°17′49″N   38°29′36″E
В апреле 2022 года жителям России запретили посещать сайт meteo.paraplan.net по решению Генеральной прокуратуры. Аудитория сайта уменьшилась в 10 раз. Владельцы сайта не видят смысла в поддержке погодного сервера в таких условиях. Сайт будет закрыт в октябре.
temp.,
°C
wind,
m/s
gust,
m/s
humid.,
%
clouds,
%
prec.,
mm/h
press.,
hPa
HPBL,
m
30 september, fri
fri3000:00+7sse269684 0.0 1014119
03:00+7s2896100 0.0 1015167
06:00+7s3995100 0.0 1015245
09:00+10sse3885100 0.0 1015286
12:00+14s4871100 0.0 1015645
15:00+16s487696 0.0 1015961
18:00+14s4991100 0.2 1015457
21:00+12s389896 0.6 1016298
1 october, sat
sat100:00+11ssw2499100 0.1 1016137
03:00+11sw1199100 0.1 101744
06:00+11e1199100 0.1 101758
09:00+12ese1297100 0.1 1016145
12:00+13se1393100 0.1 1014258
15:00+14ese2390100 0.1 1013345
18:00+13ese2597100 0.0 1011188
21:00+12se31098100 0.3 1008317
2 october, sun
sun200:00+13s4109799 1.4 1006504
03:00+12ssw5109398 1.8 1005722
06:00+9sw51187100 0.2 1005840
09:00+9sw51192100 0.3 1005787
12:00+9sw51090100 0.0 1007782
15:00+10wsw4782100 0.0 1007862
18:00+9sw2589100 0.1 1008417
21:00+8ssw0193100 0.1 100817
3 october, mon
mon300:00+7ne2595100 0.0 1006160
03:00+8ne51195100 3.1 1003539
06:00+9e51497100 5.7 999611
09:00+11ese51398100 6.7 997631
12:00+14se61693100 3.0 9951236
15:00+13se71794100 6.9 9941289
18:00+10s71291100 1.1 997995
21:00+8s61291100 1.2 10001120
4 october, tue
tue400:00+7s61190100 0.1 10021353
03:00+6ssw61190100 0.6 10041202
06:00+6s51090100 0.1 1007936
09:00+7s5108327 0.2 1009845
12:00+11s6117555 0.1 10101189
15:00+11ssw597442 0.6 10121125
18:00+10s5118295 0.3 1014688
21:00+8s5128884 0.6 1015565